Regional Weather Roundup
Issued by NWS Goodland, KS

Home | Current Version | Previous Version | Graphics & Text | Print | Product List | Glossary On
Versions: 1 2 3 4 5 6 7 8 9 10 11 12 13 14 15 16 17 18 19 20 21 22 23 24 25 26 27 28 29 30 31 32 33 34 35 36 37 38 39 40 41 42 43 44 45 46 47 48 49 50
000
ASUS43 KGLD 021608
RWRGLD

GOODLAND FORECAST AREA HOURLY WEATHER ROUNDUP
NATIONAL WEATHER SERVICE GOODLAND KS
1000 AM MDT TUE JUN 02 2015

...OFFICIAL OBSERVATIONS...

CITY           SKY/WX    TMP DP  RH WIND       PRES   REMARKS
GOODLAND KS    SUNNY     72  63  73 S16       29.92S
HILL CITY KS   PTSUNNY   72  63  73 S14G22    29.90F
IMPERIAL NEB   SUNNY     73  60  63 S9        29.90S
MCCOOK NEB     MOSUNNY   76  66  71 SE12      29.88S
AKRON CO       SUNNY     74  55  51 SW15      29.94F
BURLINGTON CO  MOSUNNY   69  60  73 S20       29.93F
LIMON CO       SUNNY     70  54  56 S9        30.01F
$$

...UNOFFICIAL OBSERVATIONS...

CITY           SKY/WX    TMP DP  RH WIND       PRES   REMARKS
COLBY KS       SUNNY     75  64  69 SE16      29.92S
GOVE KS          N/A     72  32  23 MISG        N/A
NORTON KS      SUNNY     73  59  60 SE15      29.89S
SHARON SPRINGS   N/A     72  64  76 MISG        N/A
KIT CARSON CO    N/A     69  62  78 MISG        N/A
$$



USA.gov is the U.S. government's official web portal to all federal, state and local government web resources and services.